910412 801  1.2+  0.1-    961209 801  0.1-  1.4-    970211 118  0.1+  0.3-  

910414 675 (1.0+  2.6-)   961212 867  1.8-  0.8+    970211 118  0.7+  0.3-  

910414 675  1.5-  2.0-    961212 867  1.3-  0.6+    970211 118  0.5+  0.2+  

910416 675 (5.2+  3.9-)   961212 867  1.4-  0.5+    970214 605 (2.4+  0.4-) 

910417 675 (3.3-  6.5+)   961214 691  0.4-  0.2-    970214 605 (2.2+  0.7-) 

910417 675 (2.2+  3.1+)   961214 691  0.3-  0.3-    970220 118  1.2+  0.0   

910419 801  2.0+  0.6-    961214 691  0.3-  0.3-    970220 118  0.9+  0.0   

910419 801  1.1+  0.6-    961214 897  1.0-  0.1+    970222 046  0.8+  0.4+  

1995/                     961214 897  1.3-  0.0     970222 046  0.6+  0.3+  

950622 691  0.3+  0.1-    961216 118  0.6-  0.2-    970222 046  0.6+  0.4+  

950622 691  1.4+  0.3+    961216 118  0.6-  0.2-    970224 360  0.4+  0.4+  

950623 691  1.1+  0.3+    961216 046  0.5-  0.5-    970224 360  0.3+  0.5+  

950623 691  1.8+  0.1+    961216 046  0.6-  0.5-    970224 900  1.4+  0.5+  

950902 691  0.8+  0.7+    961216 046  0.5-  0.5-    970224 900  0.9+  0.6+  

950902 691  0.0   1.1+    961218 900  1.1-  0.5-    970301 118  1.2+  0.2-  

950902 691  1.2+  0.8+    961218 900  0.9-  0.5-    970301 118  0.8+  0.3-  

951022 691  1.3+  0.7+    961218 372  0.3-  0.3+    970304 897  1.4+  0.7+  

951022 691  0.6+  1.2+    961218 372  0.8-  1.1+    970304 897  1.9+  0.6+  

951115 691  1.2+  0.2+    961218 372  1.8-  0.5+    970304 118  0.5+  0.2+  

951115 691  1.4+  0.6+    961219 355  0.6-  0.0     970304 118  0.7+  0.0   

951115 691  1.4+  0.0     961219 355  0.6-  0.1-    970323 118  0.6+  0.5-  

1996/                     961220 355  0.9-  0.5+    970323 118  0.8+  0.5-  

960726 360  0.6-  0.3-    961220 355  0.6-  0.1-    970326 118  0.2-  0.5-  

960726 360  1.1-  0.4-    961221 046  0.1-  0.1-    970326 118  1.3+  0.4-  

960824 360  0.0   0.4-    961221 046  0.4-  0.2-    970326 118  1.4+  0.4-  

960824 360  0.4-  0.3-    961221 046  0.1-  0.2-    970407 360  0.6+  0.4-  

960826 557  1.0-  0.2-    961227 118  0.7+  0.3+    970407 360  0.3+  0.1-  

960826 557  0.7-  0.5-    961227 595  0.2+  1.1+    970504 360  0.7+  0.7-  

960910 360  0.5-  0.2-    961227 595  0.2+  0.7+    970504 360  0.6+  0.4-  

960910 360  1.0-  0.3-    961228 046  0.4+  0.3+    970515 118  0.8+  1.5-  

961010 360  0.4-  0.3-    961228 046  0.6+  0.2+    970515 118  0.5+  1.3-  

961010 360  0.5-  0.4-    961228 046  0.6+  0.2+    970519 046  1.0-  1.0+  

961010 867  1.1-  0.7-    961230 897  0.4+  0.9+    970519 046  0.1-  0.7-  

961010 867  0.7-  0.5-    961230 900  0.1+  1.6+    970519 046  0.8+  0.0   

961016 897  1.8-  0.1-    961230 897  0.4+  0.6+    1998/                   

961016 897  1.7-  0.2-    961230 900  0.2-  0.8+    980202 691  1.3-  0.2+  

961022 360  0.2-  0.5-    961230 355  0.2+  0.5+    980202 691  1.1-  0.4+  

961022 360  0.5-  0.4-    961230 355  0.2+  0.5+    980202 691  0.7-  0.2+  

961103 118  0.5-  0.2-    1997/                     980226 691  0.2+  0.5+  

961104 118  0.5-  0.2-    970102 355  0.4+  1.1+    980226 691  0.1-  0.8+  

961104 557  0.1-  0.5-    970102 355  0.6+  1.0+    980226 691  0.4+  0.5+  

961104 557  0.0   0.6-    970107 595  0.2+  0.5+    980226 691  0.4-  0.4-  

961104 557  0.2-  0.3-    970107 605  0.8+  1.1+    980226 691  1.6-  1.6+  

961104 557  0.2-  0.3-    970107 595  0.3+  0.5+    980226 691  0.1-  0.7+  

961106 897  1.1-  0.1-    970107 605  0.9+  1.2+    980302 867  0.0   0.4+  

961106 897  1.5-  0.4-    970107 605  1.1+  1.5+    980302 867  0.0   0.7+  

961106 897  1.3-  0.5-    970111 360  0.6+  0.1+    980526 691  0.5-  0.7-  

961106 360  0.0   0.4-    970111 360  0.6+  0.1+    980526 691  0.6-  0.8+  

961106 360  0.5-  0.2-    970113 900  1.0+  0.8+    980526 691  0.2-  0.3-  

961111 801  0.8-  0.4-    970113 900  0.9+  0.5+    980623 691  0.8-  0.2+  

961111 801  0.6-  0.5-    970115 605 (2.3+  1.3+)   980623 691  0.6-  0.1+  

961112 801  0.7-  0.1+    970115 605  2.1+  1.3+    980623 691  0.9-  0.2+  

961112 801  0.4-  0.0     970124 118  1.2+  0.1+    980624 691  1.0-  0.4+  

961113 118  0.8-  0.3+    970124 118  0.7+  0.2-    980624 691  1.1-  0.5+  

961113 118  0.5-  0.3+    970126 118  0.5+  0.5-    980624 691  0.9-  0.4+  

961113 867  0.7-  0.1-    970126 118  0.7+  0.1+    980726 691  0.2+  0.3+  

961113 867  0.4-  0.5+    970126 118  0.1+  0.2+    980726 691  0.4+  0.3+  

961113 867  0.4-  0.5+    970128 900  1.7+  0.7+    980726 691  0.4+  0.4+  

961113 360  0.1-  0.2-    970128 900  1.0+  1.1+    1999/                   

961113 360  0.0   0.4-    970129 897  1.5+  0.4+    990523 693  2.1+  0.2+  





 124P/Mrkos 

Epoch 2002 July 25.0 TT = JDT 2452480.5  

T 2002 July 27.01727 TT                                 Nakano

q   1.4670511            (2000.0)            P               Q

n   0.17156123     Peri.  181.24387     -0.99902030     +0.04241569

a   3.2076720      Node     1.39022     -0.03476509     -0.57570313

e   0.5426430      Incl.   31.35226     -0.02738295     -0.81655790

P   5.74

From 66 observations 1991-1998, mean residual 0".78.

Residuals in seconds of arc 

1991/                     910321 801  0.3-  1.0+    910518 413  0.1+  0.2+  

910315 400  0.6-  0.9-    910321 801  0.4-  0.5+    910611 474  0.3-  0.9+  

910315 400 (3.6+  4.5+)   910321 657  1.3+  0.1-    910611 474  1.1+  0.9-  

910315 400 (3.6+  1.4-)   910321 657 (1.5-  8.6-)   910710 474  0.5+  0.4-  

910315 400 (2.9+  1.8+)   910321 413  0.3+  0.4-    910710 474  1.6+  0.2-  

910316 896 (0.2+  2.8-)   910321 474  0.3-  1.1+    1995/                   

910316 046 (6.1-  4.2-)   910321 474  0.5+  0.9+    950920 691  1.1-  1.6+  

910316 046 (5.0-  3.2-)   910321 413  0.8+  0.5-    950920 691  0.1-  0.7+  

910317 046 (2.6-  0.3-)   910321 046  0.6-  0.1+    950920 691 (2.3-  1.3+) 

910317 046 (3.6-  2.8-)   910321 046  1.2-  1.5-    950920 691  0.5-  2.1+  

910317 896 (0.6-  4.5-)   910322 046  1.3-  0.4-    950928 709 (0.0   3.0+) 

910317 046 (2.6-  1.5-)   910322 046  0.8+  1.3+    950928 709 (1.4+  3.4-) 

910317 046 (2.8-  1.5-)   910322 413  0.5+  0.8+    951021 709  0.5+  0.2-  

910318 046 (0.7-  4.2+)   910323 372  0.4+  0.4+    951021 709  0.3-  0.3-  

910318 046 (1.7-  5.0+)   910323 372  0.0   0.6-    951021 709  1.0+  0.3+  

910318 675 (4.9+  0.3+)   910323 372  1.5+  0.8-    951021 709  1.2-  0.5-  

910318 675 (2.5+  0.5-)   910323 372  0.3-  0.6+    951027 693  0.8+  0.5+  

910318 413 (3.2-  1.3+)   910402 413  0.6+  0.2-    951027 693  0.4+  0.5+  

910318 323  1.2+  1.8+    910403 413  1.1+  0.5-    951027 693  0.9+  0.2-  

910318 323 (7.0+ 12.6+)   910403 372  1.8-  0.5+    951028 658  0.1-  0.2-  

910319 474  0.9-  1.4-    910403 372  1.9-  0.3+    951028 658  0.3+  0.1+  

910319 474  0.8-  0.9-    910403 372  1.6-  0.5+    951030 658  0.3-  0.7-  

910319 474  0.4-  0.8-    910405 413  0.8+  0.0     951030 658  1.0-  0.5-  

910319 474  0.3-  1.0-    910408 372  1.6+  0.9+    951119 658  0.5-  0.6+  

910319 323  0.0   0.2-    910416 474  0.8+  0.2+    951119 658 (2.3-  0.5+) 

910319 323  0.3+  0.4+    910416 474  1.2+  0.0     951119 658  0.5-  0.1-  

910319 413 (2.5-  1.6+)   910418 413  0.0   0.3-    1998/                   

910320 413  0.7+  0.2+    910418 413  0.9-  1.2-    980916 693  0.2-  0.3-  

910320 372  0.1-  0.4+ Y  910420 413  0.7+  0.5-    980916 693  0.3+  0.3-  

910320 372  1.1-  0.4+ Y  910505 372 (2.8-  0.6-)   980916 693  0.7+  0.5-  

910320 413  0.2-  0.2+    910516 413  0.1-  0.1-    980916 693  0.2-  0.1-  





 137P/Shoemaker-Levy 2 

Epoch 2000 Jan. 17.0 TT = JDT 2451560.5  

T 2000 Feb. 5.82312 TT                                  Nakano

q   1.8685703            (2000.0)            P               Q

n   0.10514060     Peri.  142.02042     +0.95579188     -0.28647038

a   4.4458596      Node   234.75348     +0.24598270     +0.90252299

e   0.5797055      Incl.    4.65703     +0.16110367     +0.32153845

P   9.37

From 69 observations 1990-1999, mean residual 0".68.

Residuals in seconds of arc 

1990/                     980519 696  0.3-  0.6+    990713 159  0.0   0.2-  

900917 675 (0.4-  2.5-)   980519 696  0.3-  0.2+    990713 704  0.0   0.3-  

900917 675  0.8+  2.0-    980520 696  0.1-  0.2-    990713 704  0.5+  0.6+  

900920 675 (0.8+  3.5-)   980520 696  0.6+  0.0     990713 704  0.9+  0.2+  

901014 675  0.6-  1.3-    980520 696  0.7+  0.1+    990713 704  0.0   0.4+  

901016 675  0.4-  0.7-    1999/                     990713 704  0.5+  0.7+  

901025 675  0.2-  0.6+    990708 360  0.3-  0.3-    990713 159  0.7-  0.4-  

901025 675  0.9-  0.2-    990708 360  0.4-  0.2-    990713 159  1.1-  0.1-  

901113 675  0.8+  0.3+    990708 360  0.5-  0.2-    990716 122  1.1+  0.2+  

901113 675  0.4+  1.6-    990708 627  0.8-  1.4+    990716 122  0.1-  0.2+  

901115 675  0.9-  1.4+    990708 627  1.1+  1.0-    990716 122  0.4+  0.0   

901115 675  1.7+  0.4-    990708 627  0.4-  0.5+    990716 122  0.1+  0.2+  

901207 688  0.7+  0.8+    990708 627  1.0-  0.5-    990723 402  0.6-  0.5-  

901207 688  0.7+  0.7+    990709 627  1.0+  1.1-    990723 402  0.5-  0.5-  

901207 372 (2.3-  0.2+)   990709 627  1.2-  0.4+    990723 402  0.6-  0.3-  

901207 372(11.8-  1.1+)   990709 627  0.6+  0.2+    990723 402  0.3-  0.4-  

901211 568  1.5-  0.5+    990712 627  0.2+  0.8+    990724 402  1.2-  0.1+  

901212 568  0.7-  0.6+    990712 159  0.2-  0.9-    990724 402  0.3-  0.3-  

901215 801  0.1+  0.8+    990712 159  0.4+  0.0     990724 402  0.9-  0.4-  

901215 801  0.2+  0.5+    990712 159  0.6+  0.0     990724 402  0.8-  0.2-  

901218 413  0.3-  0.8+    990712 627  0.9+  2.0+    990912 695  1.4+  0.0   

1991/                     990712 159  0.8+  0.4+    990912 695  1.6+  0.1-  

910115 688  0.5-  0.4+    990712 159  0.0   0.3-    990914 046  0.5-  0.6+  

910115 688  0.6+  0.6+    990712 627  0.0   0.9+    990914 046  0.2-  0.3+  

